Grosse Ile, MI

12:29 AM EDT on June 29, 2017 (GMT -0400)
Grosse Ile Municipal

Weather History for KONZ - March, 2014

Change the Weather History Date:

Tuesday, March 11, 2014

  Actual Average (KDTW) Record (KDTW)
Temperature  
Mean Temperature 42 °F -  
Max Temperature 51 °F 42 °F 72 °F (1977)
Min Temperature 33 °F 26 °F 7 °F (1960)
Degree Days  
Heating Degree Days 23    
Moisture  
Dew Point 36 °F    
Average Humidity 82    
Maximum Humidity 93    
Minimum Humidity 58    
Precipitation  
Precipitation 0.02 in - - ()
Sea Level Pressure  
Sea Level Pressure 29.66 in    
Wind  
Wind Speed 3 mph (West)    
Max Wind Speed 13 mph    
Max Gust Speed 17 mph    
Visibility 6 miles    
Events Rain    
Averages and records for this station are not official NWS values.
T = Trace of Precipitation, MM = Missing Value Source: NWS Daily Summary

Daily Weather History Graph

Daily Weather History Graph

Search for Another Location

Airport or City:

Trip Planner

Search our weather history database for the weather conditions in past years. The results will help you decide how hot, cold, wet, or windy it might be!

Date:

Astronomy

Mar. 11, 2014 Rise Set
Actual Time 7:51 AM EDT 7:34 PM EDT
Civil Twilight 7:23 AM EDT 8:02 PM EDT
Nautical Twilight 6:51 AM EDT 8:34 PM EDT
Astronomical Twilight 6:18 AM EDT 9:07 PM EDT
Moon 3:06 PM EDT (3/11) 4:48 AM EDT (3/11)
Length of Visible Light 12h 39m
Length of Day
11h 43m
Waxing Gibbous, 78% of the Moon is Illuminated
Mar 11
Waxing Gibbous
Mar 16
Full
Mar 23
Last Quarter
Mar 30
New
Apr 7
First Quarter

Hourly Weather History & Observations

Time (EDT) Temp. Windchill Dew Point Humidity Pressure Visibility Wind Dir Wind Speed Gust Speed Precip Events Conditions
12:14 AM 42.8 °F 41.1 °F 37.4 °F 81% 29.63 in 7.0 mi West 3.5 mph - N/A   Clear
12:34 AM 41.0 °F 38.0 °F 37.4 °F 87% 29.63 in 7.0 mi West 4.6 mph - N/A   Clear
12:54 AM 41.0 °F - 37.4 °F 87% 29.63 in 7.0 mi Calm Calm - N/A   Clear
1:14 AM 41.0 °F 39.0 °F 35.6 °F 81% 29.63 in 7.0 mi WSW 3.5 mph - N/A   Clear
1:34 AM 41.0 °F 38.0 °F 35.6 °F 81% 29.63 in 7.0 mi WSW 4.6 mph - N/A   Clear
1:54 AM 39.2 °F 35.9 °F 35.6 °F 87% 29.63 in 7.0 mi West 4.6 mph - N/A   Clear
2:14 AM 39.2 °F 37.0 °F 35.6 °F 87% 29.63 in 7.0 mi West 3.5 mph - N/A   Clear
2:34 AM 39.2 °F - 35.6 °F 87% 29.63 in 5.0 mi Calm Calm - N/A   Clear
2:54 AM 39.2 °F 37.0 °F 35.6 °F 87% 29.64 in 5.0 mi WSW 3.5 mph - N/A   Clear
3:14 AM 39.2 °F 37.0 °F 35.6 °F 87% 29.64 in 5.0 mi WSW 3.5 mph - N/A   Clear
3:34 AM 39.2 °F - 35.6 °F 87% 29.64 in 5.0 mi Calm Calm - N/A   Clear
3:54 AM 39.2 °F 37.0 °F 35.6 °F 87% 29.63 in 5.0 mi SW 3.5 mph - N/A   Clear
4:14 AM 39.2 °F - 35.6 °F 87% 29.63 in 5.0 mi Calm Calm - N/A   Clear
4:34 AM 37.4 °F - 35.6 °F 93% 29.63 in 4.0 mi Calm Calm - N/A   Clear
4:54 AM 39.2 °F - 35.6 °F 87% 29.63 in 4.0 mi Calm Calm - N/A   Clear
5:14 AM 37.4 °F - 33.8 °F 87% 29.62 in 4.0 mi Calm Calm - N/A   Clear
5:34 AM 37.4 °F 34.9 °F 35.6 °F 93% 29.62 in 4.0 mi South 3.5 mph - N/A   Clear
5:54 AM 35.6 °F - 33.8 °F 93% 29.63 in 2.5 mi Calm Calm - N/A   Clear
6:14 AM 33.8 °F - 32.0 °F 93% 29.62 in 2.5 mi Calm Calm - N/A   Clear
6:34 AM 33.8 °F - 32.0 °F 93% 29.64 in 2.0 mi Calm Calm - N/A   Clear
6:54 AM 33.8 °F - 32.0 °F 93% 29.64 in 1.8 mi Calm Calm - N/A   Mist
7:14 AM 33.8 °F - 32.0 °F 93% 29.64 in 2.0 mi Calm Calm - N/A   Clear
7:34 AM 33.8 °F - 32.0 °F 93% 29.64 in 1.8 mi Calm Calm - N/A   Mist
7:54 AM 33.8 °F - 32.0 °F 93% 29.64 in 1.5 mi Calm Calm - N/A   Mist
8:14 AM 33.8 °F 28.6 °F 32.0 °F 93% 29.66 in 1.5 mi South 5.8 mph - N/A   Mist
8:34 AM 35.6 °F - 33.8 °F 93% 29.66 in 1.2 mi Calm Calm - N/A   Mist
8:54 AM 35.6 °F - 33.8 °F 93% 29.67 in 1.2 mi Calm Calm - N/A   Mostly Cloudy
9:13 AM 35.6 °F - 33.8 °F 93% 29.67 in 1.0 mi Calm Calm - N/A   Mostly Cloudy
9:34 AM 37.4 °F - 35.6 °F 93% 29.67 in 1.5 mi Calm Calm - N/A   Mostly Cloudy
9:54 AM 39.2 °F - 37.4 °F 93% 29.67 in 2.0 mi Calm Calm - N/A   Clear
10:14 AM 41.0 °F 38.0 °F 37.4 °F 87% 29.67 in 3.0 mi WSW 4.6 mph - N/A   Clear
10:34 AM 42.8 °F - 37.4 °F 81% 29.67 in 4.0 mi Calm Calm - N/A   Haze
10:54 AM 42.8 °F - 37.4 °F 81% 29.67 in 4.0 mi Calm Calm - N/A   Haze
11:14 AM 42.8 °F - 37.4 °F 81% 29.67 in 3.0 mi Calm Calm - N/A   Haze
11:34 AM 44.6 °F - 37.4 °F 76% 29.66 in 5.0 mi Calm Calm - N/A   Haze
11:54 AM 44.6 °F 40.7 °F 37.4 °F 76% 29.65 in 5.0 mi South 6.9 mph - N/A   Haze
12:14 PM 44.6 °F 42.2 °F 37.4 °F 76% 29.65 in 5.0 mi SSW 4.6 mph - N/A   Haze
12:34 PM 48.2 °F - 37.4 °F 66% 29.65 in 7.0 mi WNW 3.5 mph - N/A   Clear
12:54 PM 48.2 °F - 37.4 °F 66% 29.66 in 7.0 mi WNW 4.6 mph - N/A   Scattered Clouds
1:14 PM 48.2 °F - 37.4 °F 66% 29.65 in 7.0 mi Calm Calm - N/A   Scattered Clouds
1:34 PM 50.0 °F - 37.4 °F 62% 29.66 in 7.0 mi Calm Calm - N/A   Scattered Clouds
1:54 PM 48.2 °F - 37.4 °F 66% 29.65 in 7.0 mi South 3.5 mph - N/A   Clear
2:14 PM 44.6 °F 40.7 °F 37.4 °F 76% 29.65 in 5.0 mi South 6.9 mph - N/A   Haze
2:34 PM 46.4 °F 43.5 °F 39.2 °F 76% 29.64 in 7.0 mi South 5.8 mph - N/A   Clear
2:54 PM 48.2 °F - 39.2 °F 71% 29.65 in 7.0 mi South 5.8 mph - N/A   Scattered Clouds
3:14 PM 42.8 °F 41.1 °F 37.4 °F 81% 29.65 in 5.0 mi SSW 3.5 mph - N/A   Haze
3:34 PM 48.2 °F - 39.2 °F 71% 29.65 in 7.0 mi Calm Calm - N/A   Scattered Clouds
3:54 PM 50.0 °F - 37.4 °F 62% 29.65 in 10.0 mi Calm Calm - N/A   Clear
4:14 PM 51.8 °F - 37.4 °F 58% 29.64 in 10.0 mi Calm Calm - N/A   Clear
4:33 PM 50.0 °F - 39.2 °F 66% 29.64 in 10.0 mi Calm Calm - N/A   Scattered Clouds
4:54 PM 44.6 °F 42.2 °F 37.4 °F 76% 29.63 in 7.0 mi ESE 4.6 mph - N/A   Mostly Cloudy
5:14 PM 42.8 °F - 37.4 °F 81% 29.64 in 7.0 mi Calm Calm - N/A   Scattered Clouds
5:34 PM 44.6 °F - 37.4 °F 76% 29.65 in 7.0 mi Calm Calm - N/A   Scattered Clouds
5:54 PM 46.4 °F - 37.4 °F 71% 29.64 in 7.0 mi Calm Calm - N/A   Scattered Clouds
6:14 PM 44.6 °F - 37.4 °F 76% 29.65 in 7.0 mi Calm Calm - N/A   Scattered Clouds
6:34 PM 44.6 °F - 37.4 °F 76% 29.66 in 10.0 mi Calm Calm - N/A   Scattered Clouds
6:54 PM 44.6 °F - 37.4 °F 76% 29.67 in 7.0 mi Calm Calm - N/A   Mostly Cloudy
7:14 PM 42.8 °F - 37.4 °F 81% 29.68 in 7.0 mi Calm Calm - N/A   Overcast
7:34 PM 41.0 °F - 35.6 °F 81% 29.69 in 10.0 mi Calm Calm - N/A   Overcast
7:54 PM 41.0 °F - 35.6 °F 81% 29.71 in 7.0 mi Calm Calm - N/A   Overcast
8:14 PM 44.6 °F - 37.4 °F 76% 29.71 in 7.0 mi Calm Calm - N/A Rain Light Rain
8:34 PM 42.8 °F 41.1 °F 37.4 °F 81% 29.73 in 7.0 mi NNW 3.5 mph - N/A Rain Light Rain
8:54 PM 41.0 °F 37.1 °F 37.4 °F 87% 29.73 in 7.0 mi North 5.8 mph - N/A Rain Rain
9:14 PM 42.8 °F 37.0 °F 37.4 °F 81% 29.72 in 7.0 mi North 10.4 mph - N/A Rain Rain
9:34 PM 42.8 °F 36.2 °F 37.4 °F 81% 29.72 in 10.0 mi North 12.7 mph - N/A Rain Light Rain
9:54 PM 42.8 °F 36.2 °F 37.4 °F 81% 29.70 in 10.0 mi North 12.7 mph - 0.01 in Rain Light Rain
10:14 PM 42.8 °F 37.0 °F 37.4 °F 81% 29.70 in 10.0 mi North 10.4 mph 17.3 mph 0.01 in   Overcast
10:34 PM 42.8 °F 37.0 °F 37.4 °F 81% 29.69 in 10.0 mi NNE 10.4 mph - 0.01 in   Overcast
10:54 PM 42.8 °F 38.0 °F 37.4 °F 81% 29.70 in 10.0 mi North 8.1 mph - 0.01 in   Overcast
11:14 PM 41.0 °F 34.7 °F 37.4 °F 87% 29.69 in 10.0 mi NNE 10.4 mph - N/A Rain Light Rain
11:34 PM 41.0 °F 34.7 °F 37.4 °F 87% 29.68 in 10.0 mi NNE 10.4 mph - N/A Rain Light Rain
11:54 PM 39.2 °F 33.0 °F 35.6 °F 87% 29.67 in 10.0 mi NE 9.2 mph - N/A   Scattered Clouds